AVA9781 SKSP-SKBO

Flight info

Callsign AVA9781
Flight time N/A
Altitude 37000
Route BODED2B BODED UP530 RNG UQ121 ISVAT ISVAT4E
Aircraft A320/M-SDE3FGHIRWY/LB1

Departure

Time 2026-04-27 01:18
Airport Gustavo Rojas Pinilla International Airport (SKSP)

Arrival

Time N/A
Airport El Dorado International Airport (SKBO)
Time Latitude Longitude Altitude Speed Heading
2026-04-27 00:57 12.58692 -81.70232 15 ft 0 kts 150°
2026-04-27 01:06 12.58709 -81.70242 15 ft 4 kts 150°
2026-04-27 01:06 12.58733 -81.70255 15 ft 4 kts 171°
2026-04-27 01:06 12.58750 -81.70252 15 ft 1 kts 240°
2026-04-27 01:10 12.58748 -81.70259 17 ft 2 kts 253°
2026-04-27 01:11 12.58744 -81.70274 15 ft 3 kts 252°
2026-04-27 01:11 12.58732 -81.70297 15 ft 4 kts 242°
2026-04-27 01:11 12.58721 -81.70317 18 ft 3 kts 240°
2026-04-27 01:11 12.58714 -81.70330 17 ft 2 kts 240°
2026-04-27 01:12 12.58708 -81.70342 15 ft 3 kts 241°
2026-04-27 01:12 12.58711 -81.70369 15 ft 5 kts 287°
2026-04-27 01:12 12.58723 -81.70404 17 ft 4 kts 291°
2026-04-27 01:12 12.58734 -81.70432 18 ft 5 kts 290°
2026-04-27 01:13 12.58730 -81.70475 18 ft 7 kts 249°
2026-04-27 01:13 12.58702 -81.70527 19 ft 9 kts 239°
2026-04-27 01:13 12.58669 -81.70583 22 ft 10 kts 239°
2026-04-27 01:13 12.58633 -81.70645 24 ft 10 kts 239°
2026-04-27 01:14 12.58598 -81.70707 30 ft 10 kts 240°
2026-04-27 01:14 12.58561 -81.70774 28 ft 12 kts 240°
2026-04-27 01:14 12.58514 -81.70855 28 ft 15 kts 239°
2026-04-27 01:14 12.58459 -81.70953 31 ft 17 kts 240°
2026-04-27 01:15 12.58394 -81.71065 32 ft 20 kts 238°
2026-04-27 01:15 12.58315 -81.71202 30 ft 25 kts 240°
2026-04-27 01:15 12.58223 -81.71361 30 ft 28 kts 239°
2026-04-27 01:15 12.58129 -81.71522 28 ft 24 kts 238°
2026-04-27 01:16 12.58039 -81.71678 30 ft 27 kts 239°
2026-04-27 01:16 12.57935 -81.71851 30 ft 29 kts 239°
2026-04-27 01:16 12.57867 -81.71974 32 ft 12 kts 230°
2026-04-27 01:16 12.57819 -81.72012 32 ft 8 kts 235°
2026-04-27 01:17 12.57832 -81.72028 32 ft 2 kts 13°
2026-04-27 01:17 12.57858 -81.71998 32 ft 11 kts 60°
2026-04-27 01:17 12.57945 -81.71844 30 ft 55 kts 60°
2026-04-27 01:17 12.58271 -81.71278 30 ft 126 kts 59°
2026-04-27 01:18 12.58791 -81.70342 229 ft 163 kts 62°
2026-04-27 01:18 12.59320 -81.69334 971 ft 159 kts 62°
2026-04-27 01:18 12.59914 -81.68382 1553 ft 163 kts 57°
2026-04-27 01:18 12.60508 -81.67313 1761 ft 183 kts 68°
2026-04-27 01:19 12.60859 -81.65998 1899 ft 202 kts 83°
2026-04-27 01:19 12.60818 -81.64489 2028 ft 224 kts 100°
2026-04-27 01:19 12.60278 -81.62914 2195 ft 246 kts 118°
2026-04-27 01:19 12.59185 -81.61509 2584 ft 257 kts 137°
2026-04-27 01:20 12.58209 -81.60789 2865 ft 263 kts 150°
2026-04-27 01:20 12.55894 -81.59905 3850 ft 271 kts 160°
2026-04-27 01:20 12.54087 -81.59283 4669 ft 277 kts 160°
2026-04-27 01:20 12.52248 -81.58639 5439 ft 281 kts 160°
2026-04-27 01:21 12.50381 -81.57982 6211 ft 286 kts 160°
2026-04-27 01:21 12.48479 -81.57315 6940 ft 291 kts 161°
2026-04-27 01:21 12.47200 -81.56866 7424 ft 294 kts 160°
2026-04-27 01:21 12.45348 -81.55953 8181 ft 298 kts 148°
2026-04-27 01:22 12.43707 -81.54637 8944 ft 302 kts 135°
2026-04-27 01:22 12.42261 -81.53065 9704 ft 305 kts 133°
2026-04-27 01:22 12.40786 -81.51448 10201 ft 319 kts 133°
2026-04-27 01:22 12.39233 -81.49753 10393 ft 341 kts 134°
2026-04-27 01:23 12.37568 -81.47942 10822 ft 353 kts 134°
2026-04-27 01:23 12.35871 -81.46095 11468 ft 358 kts 133°